[[{"header":{"parameterUnit":"m.s-1","parameterCategory":1,"la1":30.2991,"la2":30.254,"lo1":-89.0895,"lo2":-89.0444,"dy":0.0017,"dx":0.0017,"nx":28,"ny":28,"refTime":"2024-06-30T21:00:00:Z","depth":0,"parameterNumber":2,"parameterNumberName":"U-component_of_WINDS"},"data":[0,0,0,0,0,0,0,0,0,0,0,0,0,0,0,0,0,0,0,0,0,0,0,0,0,0,0,0,0,0,0,0,0,0,0,0,0,0,0,0,0,0,0,0,0,0,0,0,0,0,0,0,0,0,0,0,0,0,1.7514,1.7515,0,1.7619,1.762,1.7622,1.764,1.7639,1.7639,1.7638,1.7746,1.7749,1.7753,0,0,0,0,0,0,0,0,0,0,0,0,0,1.7329,1.7332,1.7514,1.7515,1.7516,1.7619,1.7621,1.7622,1.7641,1.7639,1.7638,1.7637,1.7744,1.7749,1.7753,0,0,0,0,0,0,0,0,0,0,0,0,0,1.7419,1.7334,1.7514,1.7538,1.7541,1.7619,1.7621,1.7622,1.7641,1.7639,1.7638,1.7637,1.7743,1.7748,1.7754,1.7814,0,0,1.7771,1.7773,0,0,0,0,0,0,0,0,1.7414,1.7426,1.7533,1.7537,1.754,1.7615,1.7595,1.7687,1.7641,1.7603,1.7638,1.7636,1.7703,1.7712,1.7735,1.7819,1.7824,1.7771,1.7775,1.7777,1.7779,0,0,0,0,0,0,0,1.7408,1.7422,1.7556,1.7535,1.7539,1.7544,1.7555,1.7612,1.7659,1.7606,1.7608,1.762,1.7705,1.7729,1.7737,1.7825,1.7771,1.7776,1.7779,1.7782,1.7966,1.7967,0,0,0,0,0,0,1.7397,1.7416,1.7552,1.7559,1.7473,1.7548,1.7561,1.7593,1.7659,1.7667,1.7621,1.7621,1.7721,1.7731,1.7741,1.7816,1.7777,1.7782,1.7785,1.7964,1.7966,1.7968,0,0,0,0,0,0,1.7393,1.7409,1.7548,1.7488,1.7506,1.7553,1.7588,1.7595,1.762,1.767,1.7678,1.7637,1.772,1.7733,1.7796,1.782,1.7785,1.779,1.7962,1.7965,1.7967,1.7966,0,0,0,0,0,0,1.7388,1.7408,1.7431,1.7488,1.7509,1.7601,1.759,1.7598,1.7629,1.7629,1.7687,1.7696,1.772,1.7788,1.7802,1.7827,1.7794,1.796,1.7963,1.7966,1.7964,1.7968,1.7971,0,0,0,0,0,1.7381,1.7426,1.7432,1.7448,1.7539,1.7602,1.7614,1.7641,1.7631,1.7655,1.7687,1.7694,1.7816,1.7794,1.781,1.7837,1.7959,1.7962,1.7966,1.7962,1.7967,1.7971,0,0,0,0,0,0,1.737,1.7434,1.7441,1.7506,1.7548,1.7605,1.7635,1.7645,1.7691,1.7689,1.7721,1.7734,1.7795,1.7823,1.7797,1.7899,1.7887,1.7893,1.7879,1.7884,1.7887,1.7878,1.7799,0,0,0,0,0,1.7375,1.7421,1.7475,1.7527,1.7548,1.7588,1.7616,1.7634,1.7679,1.7697,1.7734,1.7777,1.7826,1.7856,1.7904,1.7969,1.7982,1.7996,1.8,1.8002,1.8007,1.8044,1.8051,1.7979,1.7979,1.7979,0,0,1.7386,1.7427,1.7453,1.7525,1.756,1.7607,1.7603,1.7652,1.7687,1.7704,1.7765,1.7794,1.7845,1.7909,1.794,1.7934,1.803,1.8007,1.8009,1.8012,1.8048,1.8055,1.8061,1.7982,1.7981,1.7981,0,0,1.7429,1.7465,1.7512,1.7547,1.76,1.7627,1.7638,1.7694,1.7714,1.7776,1.779,1.7832,1.7915,1.795,1.7979,1.8038,1.8045,1.8052,1.8071,1.8106,1.8112,1.8117,1.8137,1.8144,1.8058,1.8058,1.8058,0,1.7435,1.7505,1.7535,1.7584,1.7615,1.7634,1.7682,1.7715,1.778,1.7802,1.7795,1.7899,1.7935,1.8008,1.8022,1.8045,1.8059,1.8045,1.8109,1.8114,1.8119,1.8139,1.8146,1.8058,1.8058,1.8058,1.8058,0,1.751,1.7559,1.7591,1.7654,1.7689,1.7738,1.7774,1.7807,1.7822,1.7849,1.7913,1.7957,1.8013,1.8032,1.8047,1.8107,1.8103,1.8102,1.809,1.8126,1.8145,1.8153,1.8059,1.8058,1.8058,1.8058,0,0,1.7547,1.7627,1.7638,1.7666,1.7727,1.7766,1.7815,1.7871,1.7897,1.7943,1.7985,1.8055,1.8056,1.8088,1.8108,1.8139,1.8182,1.8136,1.8137,1.8142,1.8251,1.825,1.8258,1.8189,1.8191,1.8192,1.8247,0,1.7596,1.7684,1.7713,1.7786,1.7832,1.7851,1.7895,1.7937,1.7965,1.8008,1.8039,1.8087,1.8085,1.8105,1.8137,1.817,1.8205,1.8167,1.8228,1.823,1.8213,1.8268,1.8266,1.8316,1.8254,1.8255,1.8256,0,1.7664,1.7711,1.7789,1.7844,1.7864,1.7903,1.7956,1.7997,1.8046,1.8064,1.8101,1.8119,1.8172,1.8158,1.8232,1.8205,1.8233,1.8253,1.8256,1.8261,1.8244,1.8273,1.8332,1.8339,1.8269,1.8268,1.8267,0,1.7681,1.7764,1.7821,1.7845,1.7912,1.7938,1.7967,1.8015,1.8047,1.8094,1.8115,1.8168,1.8196,1.8237,1.8269,1.8256,1.834,1.8328,1.8356,1.8355,1.8371,1.8369,1.8433,1.8391,1.8391,1.8391,1.8391,0,1.7732,1.7778,1.7829,1.7864,1.7918,1.7951,1.8003,1.8033,1.8076,1.8117,1.8138,1.8177,1.8217,1.8262,1.8287,1.8344,1.8357,1.8373,1.8379,1.837,1.8368,1.8387,1.8384,1.8393,1.8392,1.8392,1.8392,0,1.7758,1.7795,1.7858,1.7917,1.7933,1.7969,1.8019,1.8054,1.8084,1.8136,1.8151,1.8197,1.825,1.8287,1.8355,1.8372,1.8434,1.844,1.8417,1.8419,1.8444,1.8441,1.8522,1.8534,1.8485,1.8485,1.8486,0,1.7787,1.7824,1.7886,1.7915,1.7945,1.7992,1.8024,1.8059,1.8093,1.8152,1.818,1.8235,1.828,1.8365,1.8405,1.8457,1.8464,1.8489,1.8472,1.8462,1.8463,1.846,1.8463,1.8491,1.8491,1.8491,1.8492,0,1.7834,1.7851,1.7897,1.7949,1.7988,1.8031,1.8075,1.8098,1.814,1.8177,1.8232,1.8267,1.8338,1.8392,1.8449,1.8479,1.8493,1.8497,1.8506,1.8496,1.8481,1.8489,1.8422,1.8494,1.8494,1.8494,1.8494,1.8494,1.7862,1.7895,1.7945,1.7995,1.8032,1.8072,1.8108,1.8143,1.8189,1.8248,1.8267,1.8324,1.8373,1.8451,1.8483,1.8528,1.8526,1.8539,1.8542,1.8545,1.8544,1.8476,1.8539,1.8539,1.8539,1.8539,1.8539,0,1.7909,1.7942,1.7989,1.8049,1.8089,1.8099,1.8148,1.8181,1.8231,1.8276,1.832,1.8384,1.8437,1.8482,1.8537,1.8565,1.8573,1.8578,1.8576,1.8583,1.8543,1.8529,1.8571,1.8571,1.8571,1.8571,1.8571,1.8571,1.7938,1.7994,1.8017,1.8092,1.8126,1.8181,1.8208,1.8246,1.8282,1.8352,1.8396,1.8425,1.847,1.8529,1.8579,1.8591,1.861,1.8614,1.8627,1.8589,1.8585,1.8582,1.8569,1.8618,1.8618,1.8662,1.8663,1.8663]},{"header":{"parameterUnit":"m.s-1","parameterCategory":1,"la1":30.2991,"la2":30.254,"lo1":-89.0895,"lo2":-89.0444,"dy":0.0017,"dx":0.0017,"nx":28,"ny":28,"refTime":"2024-06-30T21:00:00:Z","depth":0,"parameterNumber":3,"parameterNumberName":"V-component_of_WINDS"},"data":[0,0,0,0,0,0,0,0,0,0,0,0,0,0,0,0,0,0,0,0,0,0,0,0,0,0,0,0,0,0,0,0,0,0,0,0,0,0,0,0,0,0,0,0,0,0,0,0,0,0,0,0,0,0,0,0,0,0,2.8134,2.8134,0,2.8065,2.8064,2.8063,2.8013,2.8013,2.8013,2.8012,2.7932,2.793,2.7928,0,0,0,0,0,0,0,0,0,0,0,0,0,2.8218,2.8217,2.8135,2.8134,2.8133,2.8065,2.8064,2.8063,2.8014,2.8013,2.8013,2.8012,2.7932,2.793,2.7928,0,0,0,0,0,0,0,0,0,0,0,0,0,2.8168,2.8217,2.8135,2.81,2.8097,2.8065,2.8064,2.8062,2.8014,2.8013,2.8013,2.8012,2.7933,2.793,2.7928,2.7922,0,0,2.7919,2.7918,0,0,0,0,0,0,0,0,2.8171,2.8165,2.8106,2.8103,2.8098,2.8047,2.8064,2.8015,2.8014,2.8045,2.8012,2.8012,2.797,2.7964,2.7952,2.7918,2.7915,2.7919,2.7917,2.7916,2.7915,0,0,0,0,0,0,0,2.8175,2.8168,2.8106,2.8105,2.8101,2.8086,2.8078,2.8054,2.8011,2.8042,2.8038,2.8031,2.7968,2.7955,2.795,2.7913,2.7919,2.7917,2.7915,2.7914,2.7872,2.7872,0,0,0,0,0,0,2.8185,2.8171,2.8109,2.8104,2.8135,2.8085,2.8076,2.8064,2.8011,2.8003,2.8032,2.8029,2.796,2.7953,2.7947,2.7937,2.7916,2.7914,2.7912,2.7871,2.7872,2.7872,0,0,0,0,0,0,2.8187,2.818,2.8112,2.8137,2.8127,2.8084,2.8071,2.8063,2.805,2.8004,2.7995,2.8027,2.7959,2.795,2.7929,2.7933,2.7912,2.791,2.7871,2.7871,2.7872,2.7917,0,0,0,0,0,0,2.8189,2.8181,2.818,2.8137,2.8126,2.8098,2.8071,2.8062,2.8047,2.8043,2.7997,2.7988,2.7958,2.7934,2.7927,2.7929,2.7908,2.787,2.7871,2.7872,2.7915,2.7919,2.7923,0,0,0,0,0,2.8193,2.8193,2.818,2.8173,2.8124,2.8098,2.8091,2.8059,2.8047,2.8045,2.8015,2.799,2.7935,2.7932,2.7923,2.7925,2.787,2.7871,2.7872,2.7913,2.7918,2.7923,0,0,0,0,0,0,2.8233,2.8186,2.8172,2.8159,2.8133,2.809,2.8085,2.8065,2.804,2.8036,2.7994,2.7984,2.7967,2.7944,2.7942,2.7917,2.7899,2.7898,2.7933,2.7938,2.7942,2.7947,2.7906,0,0,0,0,0,2.8241,2.8226,2.8185,2.8178,2.8166,2.8129,2.8116,2.8093,2.8064,2.8052,2.802,2.799,2.7966,2.7951,2.7926,2.7912,2.7901,2.7909,2.7913,2.7917,2.7916,2.7907,2.791,2.7876,2.7876,2.7876,0,0,2.8256,2.8229,2.8221,2.8185,2.8163,2.8146,2.8119,2.8102,2.8089,2.8048,2.8027,2.8003,2.7967,2.795,2.794,2.793,2.7924,2.7918,2.7921,2.7919,2.7909,2.7912,2.7915,2.7877,2.7877,2.7877,0,0,2.8275,2.8254,2.8246,2.8225,2.8192,2.8168,2.8166,2.8127,2.811,2.8089,2.8058,2.8041,2.8,2.7976,2.7958,2.7971,2.7947,2.7964,2.7984,2.7976,2.7979,2.7981,2.7985,2.7987,2.7964,2.7964,2.7964,0,2.8297,2.8273,2.8243,2.8229,2.8214,2.818,2.817,2.815,2.811,2.81,2.8089,2.8039,2.8012,2.7989,2.7993,2.798,2.7975,2.7968,2.7981,2.7983,2.7984,2.7988,2.799,2.7966,2.7966,2.7966,2.7966,0,2.8302,2.8286,2.8283,2.8249,2.8234,2.8222,2.8188,2.8175,2.8155,2.8131,2.811,2.8077,2.8046,2.8039,2.8017,2.8013,2.8007,2.799,2.797,2.7991,2.7993,2.7994,2.797,2.7969,2.7968,2.7968,0,0,2.8342,2.8294,2.8293,2.8278,2.8241,2.8227,2.8214,2.8186,2.8176,2.815,2.8137,2.8105,2.8089,2.8069,2.8045,2.8038,2.8051,2.8021,2.802,2.8027,2.8043,2.8056,2.8058,2.8035,2.8035,2.8035,2.8046,0,2.8354,2.8331,2.8305,2.829,2.8274,2.8243,2.8231,2.8206,2.8184,2.8166,2.814,2.8118,2.81,2.8088,2.808,2.8051,2.8053,2.805,2.802,2.8019,2.8029,2.8059,2.8072,2.8084,2.8047,2.8047,2.8047,0,2.8365,2.8345,2.833,2.8296,2.8289,2.8279,2.8252,2.8236,2.8207,2.8191,2.8171,2.8146,2.8128,2.8113,2.8087,2.8086,2.8072,2.8056,2.8056,2.805,2.8033,2.8054,2.8087,2.8088,2.8048,2.8048,2.8048,0,2.8396,2.8364,2.8351,2.8339,2.8299,2.8293,2.8276,2.8247,2.8233,2.8209,2.8199,2.8172,2.8157,2.8136,2.8104,2.8095,2.8081,2.8063,2.8066,2.8067,2.8062,2.8063,2.8093,2.8056,2.8056,2.8056,2.8056,0,2.8412,2.8403,2.8365,2.8356,2.8346,2.8315,2.8305,2.8284,2.8259,2.8245,2.8215,2.8202,2.8162,2.8143,2.8117,2.81,2.8093,2.8078,2.8071,2.808,2.8082,2.8069,2.8067,2.8057,2.8056,2.8056,2.8056,0,2.8443,2.8417,2.84,2.8366,2.8357,2.8351,2.832,2.831,2.8287,2.827,2.8264,2.8227,2.8204,2.8171,2.8136,2.812,2.8105,2.8095,2.8116,2.8112,2.8117,2.8116,2.8138,2.8139,2.8104,2.8104,2.8104,0,2.8454,2.8448,2.8414,2.8404,2.8389,2.8372,2.8359,2.8328,2.8315,2.8283,2.8277,2.8252,2.8231,2.8195,2.8164,2.8138,2.8126,2.8135,2.8121,2.8131,2.8125,2.8125,2.8124,2.8138,2.8138,2.8139,2.8139,0,2.8477,2.8466,2.8449,2.8428,2.8413,2.8394,2.8374,2.8367,2.8331,2.8318,2.8296,2.828,2.8247,2.8223,2.8193,2.8172,2.8149,2.8145,2.8144,2.8152,2.8164,2.8157,2.8124,2.8144,2.8143,2.8143,2.8143,2.8142,2.8498,2.8491,2.8467,2.8449,2.8432,2.8414,2.8403,2.8381,2.8363,2.8337,2.8319,2.8298,2.827,2.8228,2.8209,2.8191,2.8181,2.818,2.8179,2.8179,2.8182,2.817,2.8185,2.8185,2.8185,2.8184,2.8184,0,2.8519,2.8503,2.8487,2.8461,2.8447,2.8432,2.8408,2.8397,2.838,2.8357,2.8338,2.8313,2.829,2.8259,2.8233,2.8224,2.8213,2.8218,2.8217,2.8213,2.8192,2.8196,2.8227,2.8227,2.8227,2.8227,2.8227,2.8227,2.8528,2.8516,2.8501,2.848,2.8463,2.8445,2.8433,2.8416,2.8398,2.8372,2.8354,2.8336,2.8309,2.8281,2.8259,2.825,2.8241,2.8249,2.8237,2.8218,2.8214,2.821,2.8213,2.8248,2.8248,2.8259,2.8259,2.8259]}]]